CAPE
0 0 0 0 0 0 0 0 0 0 27 37 25 34 221 294 851 798 1116 423 1666 1695 2381 2595 3017 2691 1959 1595 1511 1324 1318 1340 1028 1045 1181 1061 909 589 458 250 220 676 903 880 616 297 92 26 12
0 0 0 0 0 0 0 0 0 0 40 16 0 0 41 175 1057 1207 1092 918 1651 1833 2147 2250 2992 2732 2343 1922 1696 1261 1237 1706 1099 1346 1549 1446 1231 891 521 323 469 816 945 880 531 250 142 98 107
0 0 0 0 0 0 0 0 0 0 0 0 0 0 110 226 889 1282 1247 534 1588 1944 2007 2353 2963 2755 2464 2282 1895 1709 1438 1814 1315 1267 1670 1403 1320 1056 683 421 541 807 972 830 508 290 175 100 48
0 0 0 0 0 0 0 0 0 0 0 0 0 129 577 668 776 1052 596 189 1378 1641 1832 2950 3136 2963 2811 2277 1987 1744 1791 1792 1454 1570 1694 1604 1454 1394 914 569 592 898 1017 942 562 340 213 128 44
0 0 0 0 0 0 0 0 0 0 0 0 0 612 755 920 809 781 615 169 982 1494 1942 2698 3366 3153 2727 2324 2102 1832 2158 2065 1999 1780 1613 1489 1465 1506 1305 844 694 901 965 930 624 430 256 131 29
0 0 0 0 0 0 0 0 0 0 0 0 0 247 856 1265 1021 722 256 139 654 2020 2263 2486 3279 3198 2870 2257 2306 2258 2380 2273 2006 1562 1430 1602 1295 1405 1515 1167 809 908 969 1017 830 525 336 154 59
0 0 0 0 0 0 0 0 0 0 0 0 0 213 684 1021 1270 1093 562 544 730 1986 2242 2381 2605 2726 2808 2465 2573 2503 2710 2544 2108 1408 1247 1536 1835 1886 1833 1539 1044 901 1087 868 829 799 527 270 139
0 0 0 0 0 0 0 0 0 0 0 0 0 0 0 70 809 1235 1066 737 644 1841 1986 2164 2251 2141 1948 2171 2625 2546 2539 2571 2244 2062 1975 1859 1911 1938 2093 1831 1432 1028 995 988 764 793 707 439 273
0 0 0 0 0 0 0 0 0 0 0 0 0 0 0 0 8 431 921 1056 909 1151 1778 1737 1681 1589 1444 1967 2256 2527 2544 2430 2247 1998 1831 1728 1326 1484 1656 1624 1805 1424 1112 1043 853 754 1126 661 482
0 0 0 0 0 0 0 0 0 0 0 0 0 0 0 0 0 18 478 785 1189 995 974 1333 1355 1241 1045 1421 1637 1822 1699 1770 1649 1405 1207 1176 1141 1024 1295 1413 1511 1624 1480 1319 846 670 1051 1169 223
0 0 0 0 0 0 0 0 0 0 0 0 0 0 0 0 0 0 0 31 617 1337 1036 934 1080 1048 766 759 1069 1131 1133 1168 1201 1150 966 712 482 498 1098 1187 1172 1123 1131 1074 856 479 467 699 359
0 0 0 0 0 0 0 0 0 0 0 0 0 0 0 0 0 0 0 0 0 255 1373 1240 956 786 639 494 880 947 863 858 866 918 712 522 383 58 650 1262 1049 1004 1017 840 756 274 21 0 37
0 0 0 0 0 0 0 0 0 0 0 0 0 0 0 0 0 0 0 0 0 0 0 1462 1418 1103 843 626 1101 1109 1046 973 864 768 586 573 636 495 1040 1087 811 734 827 742 688 537 183 123 49
0 0 0 0 0 0 0 0 0 0 0 0 0 0 0 0 0 0 0 0 0 0 0 86 1347 1273 987 889 904 1238 1246 1085 1005 914 1032 988 959 802 865 937 808 684 831 799 748 681 391 199 41
0 0 0 0 0 0 0 0 0 0 0 0 0 0 0 0 0 0 0 0 0 0 0 0 5 684 978 898 1068 1102 1172 1304 1197 1110 1122 1198 950 774 776 807 829 829 888 682 626 509 329 108 60
0 0 0 0 0 0 0 0 0 0 0 0 0 0 0 0 0 0 0 0 0 0 0 0 0 0 654 1115 1092 1101 1090 1048 1201 1190 1084 1249 1076 1002 872 687 760 855 795 625 664 431 227 91 88
0 0 0 0 0 0 0 0 0 0 0 0 0 0 0 0 0 0 0 0 0 0 0 0 0 0 0 307 661 925 509 114 908 848 1097 1189 1003 1131 1080 842 829 806 528 582 441 294 165 147 109
0 0 0 0 0 0 0 0 0 0 0 0 0 0 0 0 0 0 0 0 0 0 0 0 0 0 0 0 0 85 554 493 821 1039 846 880 827 860 1109 786 666 633 492 387 415 305 251 103 100
0 0 0 0 0 0 0 0 0 0 0 0 0 0 0 0 0 0 0 0 0 0 0 0 0 0 0 0 0 0 290 1252 1250 1156 1059 975 508 103 665 646 591 522 387 261 252 87 113 120 34
0 0 0 0 0 0 0 0 0 0 0 0 0 0 0 0 0 0 0 0 0 0 0 0 0 0 0 0 25 100 149 216 1126 1219 1080 691 328 175 687 527 577 505 352 290 548 357 98 50 1
0 0 0 0 0 0 0 0 0 0 0 0 0 0 0 0 0 0 0 0 0 0 0 0 0 0 0 30 29 185 228 103 1337 1448 1291 968 342 361 178 83 506 548 585 711 425 336 188 92 46
0 0 0 0 0 0 0 0 0 0 0 0 0 0 5 13 10 11 11 3 0 0 0 0 0 0 0 13 62 253 351 198 690 1314 1449 917 557 379 102 171 378 530 604 548 345 221 177 109 120
0 0 0 0 0 0 0 0 0 0 0 0 2 20 36 48 40 15 19 1 0 0 0 0 0 0 0 9 100 219 337 487 760 963 1297 915 612 436 187 167 428 670 413 406 292 201 156 138 4
0 0 0 0 0 0 0 0 0 0 0 0 1 2 1 12 20 6 0 0 0 0 0 0 0 0 0 0 20 118 211 553 1070 1462 1244 887 663 358 507 362 399 503 430 361 454 247 223 252 59
0 0 0 0 0 0 0 0 0 0 0 53 69 53 32 43 42 31 49 0 0 0 0 0 0 0 0 0 1 82 111 389 945 1311 1060 785 602 352 237 129 264 263 437 463 470 369 243 104 9
0 0 0 0 0 0 0 0 0 0 2 35 41 39 34 55 7 0 0 0 0 0 0 0 0 0 0 0 0 66 224 368 814 1042 940 648 416 205 82 3 74 190 335 563 340 166 107 30 6
0 0 0 0 0 0 0 0 1 2 4 31 10 9 43 23 43 1 0 0 0 0 0 0 0 0 0 0 0 30 198 311 841 782 719 460 197 152 52 0 14 158 148 255 269 106 17 11 2
0 1 0 0 0 0 0 0 16 32 33 22 5 4 4 1 0 0 0 0 0 0 0 0 0 0 0 0 0 50 208 386 757 916 591 481 234 132 80 46 67 97 122 175 135 85 2 0 3
0 0 0 5 0 0 0 0 14 1 13 6 12 2 3 0 0 0 0 0 0 0 0 0 0 0 0 0 0 88 197 557 673 675 730 443 295 57 23 0 13 72 76 93 100 13 0 0 1
0 0 9 0 0 0 0 0 11 0 1 0 0 0 0 0 0 0 0 0 0 0 0 0 0 0 0 0 0 24 230 305 496 379 274 328 89 36 6 0 15 65 68 113 36 1 6 3 13
CIN
0 0 0 0 0 0 0 0 0 0 -81 -173 -137 -126 -120 -99 -54 -49 -178 -224 -147 -131 -20 -6 0 0 -7 -9 -2 -3 -2 0 -1 0 0 0 0 -1 -7 -26 -22 0 0 0 0 0 -25 -68 -79
0 0 0 0 0 0 0 0 0 0 -194 -185 0 0 -184 -171 -146 -183 -177 -189 -171 -153 -75 -33 0 -1 -4 -14 -12 -25 -8 0 -1 -1 0 0 0 -2 -3 -23 -10 0 0 0 0 -1 -4 -5 -8
0 0 0 0 0 0 0 0 0 0 0 0 0 0 -168 -134 -130 -142 -130 -199 -149 -104 -83 -19 0 -2 -1 -4 -6 -5 -10 0 -3 -3 0 0 0 0 0 -7 -3 0 0 0 0 0 -6 -15 -21
0 0 0 0 0 0 0 0 0 0 0 0 0 -180 -66 -82 -86 -147 -196 -227 -127 -101 -78 -2 0 -1 0 0 0 0 0 0 -4 -1 0 0 0 0 0 -1 -1 0 -1 0 0 0 -7 -21 -41
0 0 0 0 0 0 0 0 0 0 0 0 0 -42 -57 -64 -76 -171 -165 -259 -138 -93 -103 -25 0 0 0 0 0 0 0 0 0 -1 0 0 0 0 0 -1 -4 -1 -3 -3 0 0 -10 -22 -52
0 0 0 0 0 0 0 0 0 0 0 0 0 -206 -35 -13 -57 -92 -192 -206 -148 -133 -96 -60 0 0 0 0 0 0 0 0 0 -3 -5 0 0 0 0 0 -1 -1 -4 -3 -1 0 -6 -25 -47
0 0 0 0 0 0 0 0 0 0 0 0 0 -220 -44 -16 -23 -33 -69 -91 -128 -103 -87 -66 -28 -5 0 -1 0 0 0 0 0 -4 -4 0 0 0 0 0 0 0 -1 -3 -1 0 -2 -19 -38
0 0 0 0 0 0 0 0 0 0 0 0 0 0 0 -416 -23 -22 -14 -14 -38 -84 -109 -94 -65 -53 -45 -3 0 0 0 0 0 0 0 0 -1 0 0 0 0 0 0 0 -1 -1 0 -14 -33
0 0 0 0 0 0 0 0 0 0 0 0 0 0 0 0 -346 -71 -19 -8 -11 -61 -87 -115 -121 -110 -100 -23 -2 -1 0 0 0 -1 -1 -2 -7 -3 -3 -2 0 0 0 0 0 -1 0 -9 -29
0 0 0 0 0 0 0 0 0 0 0 0 0 0 0 0 0 -124 -69 -18 -12 -17 -87 -124 -145 -169 -158 -87 -36 -11 -11 -3 -2 -5 -19 -17 -20 -29 -18 -15 -8 -1 0 0 0 -3 -2 -4 -55
0 0 0 0 0 0 0 0 0 0 0 0 0 0 0 0 0 0 0 -17 -13 -12 -17 -47 -99 -143 -163 -147 -112 -87 -85 -69 -42 -36 -56 -77 -84 -67 -31 -16 -17 -13 -8 -5 -3 -22 -39 -29 -50
0 0 0 0 0 0 0 0 0 0 0 0 0 0 0 0 0 0 0 0 0 -56 -9 -13 -24 -43 -53 -118 -181 -156 -127 -110 -109 -93 -96 -85 -57 -223 -72 -10 -27 -21 -19 -18 -11 -42 -80 0 -44
0 0 0 0 0 0 0 0 0 0 0 0 0 0 0 0 0 0 0 0 0 0 0 -10 -8 -13 -22 -43 -78 -80 -67 -82 -72 -65 -56 -61 -9 -37 -18 -12 -24 -34 -36 -22 -19 -9 -30 -38 -13
0 0 0 0 0 0 0 0 0 0 0 0 0 0 0 0 0 0 0 0 0 0 0 -13 -9 -6 -7 -38 -56 -67 -43 -44 -41 -40 -42 -24 -6 -21 -7 -27 -38 -46 -33 -18 -9 -6 -29 -22 -8
0 0 0 0 0 0 0 0 0 0 0 0 0 0 0 0 0 0 0 0 0 0 0 0 -12 -71 -2 -5 -35 -39 -6 -87 -73 -29 -35 -13 -6 -18 -23 -17 -27 -33 -19 -19 -6 -11 -14 -13 -3
0 0 0 0 0 0 0 0 0 0 0 0 0 0 0 0 0 0 0 0 0 0 0 0 0 0 -30 -36 -22 -52 -43 -51 -26 -33 -57 -24 -27 -25 -16 -13 -16 -23 -21 -38 -15 -22 -20 -19 -24
0 0 0 0 0 0 0 0 0 0 0 0 0 0 0 0 0 0 0 0 0 0 0 0 0 0 0 -40 -103 -24 -54 -162 -147 -24 -23 -19 -23 -29 -18 -33 -17 -11 -32 -27 -22 -41 -30 -47 -67
0 0 0 0 0 0 0 0 0 0 0 0 0 0 0 0 0 0 0 0 0 0 0 0 0 0 0 0 0 -246 -130 -101 -139 -12 -48 -36 -38 -50 -14 -37 -14 -45 -31 -25 -28 -40 -15 -44 -23
0 0 0 0 0 0 0 0 0 0 0 0 0 0 0 0 0 0 0 0 0 0 0 0 0 0 0 0 0 0 -129 -17 -36 -15 -42 -29 -47 -250 -87 -25 -19 -29 -20 -56 -75 -81 -8 -21 -14
0 0 0 0 0 0 0 0 0 0 0 0 0 0 0 0 0 0 0 0 0 0 0 0 0 0 0 0 -286 -224 -221 -86 -54 -18 -20 -39 -17 -114 -17 -11 -22 -41 -38 -60 -9 -13 -12 -7 -1
0 0 0 0 0 0 0 0 0 0 0 0 0 0 0 0 0 0 0 0 0 0 0 0 0 0 0 -293 -316 -172 -180 -318 -36 -34 -13 -18 -25 -27 -12 -12 -20 -36 -26 -15 -15 -2 -11 -31 -19
0 0 0 0 0 0 0 0 0 0 0 0 0 0 -10 -6 -21 -33 -15 -24 0 0 0 0 0 0 0 -286 -248 -146 -125 -211 -20 -39 -18 -21 -31 -55 -25 -91 -20 -22 -28 -19 -53 -40 -31 -24 -16
0 0 0 0 0 0 0 0 0 0 0 0 -24 -18 -10 -6 -9 -20 -15 -17 -20 0 0 0 0 0 0 -225 -188 -143 -110 -88 -109 -69 -41 -26 -27 -31 -26 -58 -87 -19 -35 -54 -44 -35 -39 -19 -104
0 0 0 0 0 0 0 0 0 0 0 0 -1 -5 -9 -18 -4 -7 0 -2 0 0 0 0 0 0 0 0 -247 -209 -132 -51 -18 -19 -29 -45 -23 -36 -29 -22 -22 -23 -24 -61 -23 -26 -18 -8 -25
0 0 0 0 0 0 0 0 0 0 -8 -8 -5 -8 -26 -21 -36 -8 -12 0 0 0 0 0 0 0 0 -2 -63 -232 -201 -69 -12 -5 -49 -33 -36 -24 -65 -13 -1 -43 -38 -26 -11 -4 -2 -9 -106
0 0 0 0 0 0 0 0 0 -1 -6 -4 -3 -5 -4 -16 -46 -3 0 0 0 0 0 0 0 0 0 0 0 -233 -155 -73 -13 -22 -24 -27 -47 -51 -49 -19 -1 -15 -32 -8 -13 -11 -8 -59 -98
0 0 0 0 0 0 0 0 -1 -2 -34 -13 -14 -18 -5 -15 -16 -8 0 0 0 0 0 0 0 0 0 0 0 -168 -185 -78 -1 -26 -54 -60 -39 -36 -19 0 -38 -3 -38 -31 -27 -35 -38 -58 -25
0 -2 0 0 0 0 0 0 -13 -15 -10 -15 -3 -2 -4 -1 0 0 0 0 0 0 0 0 0 0 0 0 0 -186 -137 -60 -16 -11 -46 -35 -60 -54 -35 -14 -63 -14 -16 -46 -26 -27 -33 0 -22
0 0 0 -3 0 0 0 0 -32 -11 -14 -7 -3 -4 -15 0 0 0 0 0 0 0 0 0 0 0 0 0 0 -152 -128 -14 -4 -12 -4 -36 -33 -60 -27 -14 -20 -14 -17 -36 -10 -17 0 0 -5
0 0 -3 0 0 0 0 0 -8 0 -3 -1 -1 -2 0 0 0 0 0 0 0 0 0 0 0 0 0 0 0 -86 -56 -48 -3 -46 -69 -40 -66 -38 -44 0 -106 -7 -21 -16 -14 -5 -12 -1 0
Wind_Speed
nan nan nan nan nan nan nan nan nan nan nan nan nan nan 14 13 14 14 12 13 28 25 21 22 26 27 27 27 26 26 28 29 29 27 29 29 31 32 30 28 27 26 28 30 32 29 nan nan nan
nan nan nan nan nan nan nan nan nan nan nan nan nan nan nan 12 19 21 21 20 30 30 26 24 29 31 31 33 31 30 31 32 30 28 32 31 28 29 29 29 29 26 29 30 31 29 29 nan 26
nan nan nan nan nan nan nan nan nan nan nan nan nan nan 8 7 16 14 9 14 25 28 28 28 31 33 33 34 32 30 30 33 31 29 29 29 28 28 28 28 27 26 28 29 30 29 28 26 nan
nan nan nan nan nan nan nan nan nan nan nan nan nan 14 12 6 12 15 16 15 17 18 21 25 25 23 24 25 25 26 25 31 28 27 28 26 24 26 27 27 25 23 26 30 30 28 28 26 nan
nan nan nan nan nan nan nan nan nan nan nan nan nan 16 15 13 20 20 19 19 20 16 21 23 23 21 23 23 23 23 25 27 28 28 25 23 22 24 25 27 27 24 26 28 29 29 28 26 nan
nan nan nan nan nan nan nan nan nan nan nan nan nan 29 17 12 23 25 23 21 24 25 25 27 30 31 28 27 23 19 24 23 28 28 29 28 28 25 26 26 26 24 26 28 28 29 28 27 nan
nan nan nan nan nan nan nan nan nan nan nan nan nan 33 25 20 22 32 28 29 29 28 29 29 27 29 30 28 28 29 29 31 32 27 26 25 26 27 29 28 28 23 23 26 26 27 29 28 24
nan nan nan nan nan nan nan nan nan nan nan nan nan nan nan nan 25 30 36 35 37 32 31 32 31 29 28 27 29 31 30 31 30 28 27 24 23 25 26 29 26 27 24 24 24 24 27 26 23
nan nan nan nan nan nan nan nan nan nan nan nan nan nan nan nan nan 33 35 36 38 41 39 36 36 36 33 31 30 34 33 33 34 30 27 26 25 22 21 25 28 27 26 25 26 25 26 25 22
nan nan nan nan nan nan nan nan nan nan nan nan nan nan nan nan nan nan 30 34 34 40 42 39 37 37 38 35 37 36 36 34 32 31 31 28 25 24 25 26 25 29 29 27 27 27 25 24 22
nan nan nan nan nan nan nan nan nan nan nan nan nan nan nan nan nan nan nan nan 37 31 35 38 41 41 40 38 40 40 41 39 36 34 32 30 30 28 26 26 28 27 29 28 27 28 25 24 22
nan nan nan nan nan nan nan nan nan nan nan nan nan nan nan nan nan nan nan nan nan 42 40 40 43 41 44 46 45 44 45 45 43 38 32 31 32 nan 31 29 34 31 28 31 31 29 nan nan nan
nan nan nan nan nan nan nan nan nan nan nan nan nan nan nan nan nan nan nan nan nan nan nan 47 52 51 50 50 50 42 40 43 42 42 38 33 31 32 34 34 34 33 33 32 32 30 28 23 nan
nan nan nan nan nan nan nan nan nan nan nan nan nan nan nan nan nan nan nan nan nan nan nan nan 50 47 49 52 51 51 43 44 50 42 34 33 33 33 32 37 35 34 37 35 34 33 30 24 nan
nan nan nan nan nan nan nan nan nan nan nan nan nan nan nan nan nan nan nan nan nan nan nan nan nan 47 44 43 54 54 47 32 37 40 34 36 37 36 33 35 37 36 37 38 36 35 32 27 nan
nan nan nan nan nan nan nan nan nan nan nan nan nan nan nan nan nan nan nan nan nan nan nan nan nan nan 48 46 45 54 48 42 42 32 33 34 38 38 38 37 36 38 38 38 38 34 34 nan nan
nan nan nan nan nan nan nan nan nan nan nan nan nan nan nan nan nan nan nan nan nan nan nan nan nan nan nan 50 51 49 41 43 39 44 33 34 33 35 40 37 35 39 38 36 35 34 36 28 25
nan nan nan nan nan nan nan nan nan nan nan nan nan nan nan nan nan nan nan nan nan nan nan nan nan nan nan nan nan nan 42 35 38 43 39 33 36 30 47 40 41 39 38 36 32 34 33 26 25
nan nan nan nan nan nan nan nan nan nan nan nan nan nan nan nan nan nan nan nan nan nan nan nan nan nan nan nan nan nan 44 34 40 41 37 29 23 36 43 41 43 44 38 33 33 nan 29 30 nan
nan nan nan nan nan nan nan nan nan nan nan nan nan nan nan nan nan nan nan nan nan nan nan nan nan nan nan nan nan 44 40 38 34 36 30 27 32 41 41 39 35 39 42 35 33 31 nan nan nan
nan nan nan nan nan nan nan nan nan nan nan nan nan nan nan nan nan nan nan nan nan nan nan nan nan nan nan nan nan 38 37 30 32 34 30 30 43 43 41 nan 29 31 40 36 37 35 36 nan nan
nan nan nan nan nan nan nan nan nan nan nan nan nan nan nan nan nan nan nan nan nan nan nan nan nan nan nan nan nan 36 34 29 26 33 35 37 40 39 44 49 19 20 39 33 31 31 30 31 26
nan nan nan nan nan nan nan nan nan nan nan nan nan nan nan nan nan nan nan nan nan nan nan nan nan nan nan nan 37 37 35 31 28 38 36 40 31 31 33 38 35 36 42 29 32 32 28 26 nan
nan nan nan nan nan nan nan nan nan nan nan nan nan nan nan nan nan nan nan nan nan nan nan nan nan nan nan nan nan 41 43 41 38 42 41 38 40 40 46 42 49 46 39 26 24 29 30 25 nan
nan nan nan nan nan nan nan nan nan nan nan nan nan nan nan nan nan nan nan nan nan nan nan nan nan nan nan nan nan nan 47 43 39 43 42 42 45 47 43 43 26 28 27 22 23 26 26 28 nan
nan nan nan nan nan nan nan nan nan nan nan nan nan nan nan nan nan nan nan nan nan nan nan nan nan nan nan nan nan nan 43 44 45 45 47 50 50 49 nan nan nan 25 24 24 23 27 29 nan nan
nan nan nan nan nan nan nan nan nan nan nan nan nan nan nan nan nan nan nan nan nan nan nan nan nan nan nan nan nan nan 39 42 43 43 42 47 51 50 nan nan nan 27 29 23 25 27 nan nan nan
nan nan nan nan nan nan nan nan nan nan nan nan nan nan nan nan nan nan nan nan nan nan nan nan nan nan nan nan nan nan 28 30 35 35 31 36 40 40 nan nan nan nan 27 27 23 nan nan nan nan
nan nan nan nan nan nan nan nan nan nan nan nan nan nan nan nan nan nan nan nan nan nan nan nan nan nan nan nan nan nan 28 29 32 29 32 29 31 nan nan nan nan nan nan nan 20 nan nan nan nan
nan nan nan nan nan nan nan nan nan nan nan nan nan nan nan nan nan nan nan nan nan nan nan nan nan nan nan nan nan nan 29 33 33 32 26 25 nan nan nan nan nan nan nan 20 nan nan nan nan nan
Wind_Direction
nan nan nan nan nan nan nan nan nan nan nan nan nan nan 290 285 278 292 294 302 302 303 305 301 305 305 307 305 304 300 297 295 297 301 305 307 303 298 293 291 286 282 283 282 280 277 nan nan nan
nan nan nan nan nan nan nan nan nan nan nan nan nan nan nan 286 277 278 286 295 303 302 301 301 308 309 311 310 309 307 305 303 299 297 301 299 299 298 299 297 293 290 288 286 283 281 282 nan 284
nan nan nan nan nan nan nan nan nan nan nan nan nan nan 295 222 263 283 278 293 295 292 294 298 306 305 308 307 306 308 311 311 309 305 304 303 303 302 301 297 296 292 292 291 286 287 284 283 nan
nan nan nan nan nan nan nan nan nan nan nan nan nan 252 263 197 266 296 297 291 284 300 293 300 304 307 311 312 316 316 317 318 317 315 316 312 312 314 307 302 297 296 299 297 292 291 290 286 nan
nan nan nan nan nan nan nan nan nan nan nan nan nan 292 276 270 285 288 292 297 294 288 292 298 306 307 305 303 311 318 321 325 324 320 317 316 320 321 316 307 304 301 297 296 295 293 289 286 nan
nan nan nan nan nan nan nan nan nan nan nan nan nan 291 297 315 294 301 304 306 303 303 301 304 310 311 311 314 314 317 316 319 316 317 319 321 324 325 318 312 305 305 300 294 299 294 291 289 nan
nan nan nan nan nan nan nan nan nan nan nan nan nan 291 305 293 295 307 311 306 303 302 298 300 304 308 312 313 317 316 319 318 316 315 314 314 317 317 318 317 312 312 304 299 296 299 295 293 290
nan nan nan nan nan nan nan nan nan nan nan nan nan nan nan nan 294 282 287 295 296 301 299 301 302 304 302 305 321 317 314 312 310 308 306 304 302 309 315 313 313 314 311 304 297 296 299 296 296
nan nan nan nan nan nan nan nan nan nan nan nan nan nan nan nan nan 284 285 287 290 296 301 303 306 307 306 305 308 316 317 316 315 312 310 302 291 292 296 301 311 310 308 305 301 298 298 301 298
nan nan nan nan nan nan nan nan nan nan nan nan nan nan nan nan nan nan 288 295 294 300 304 304 305 308 308 309 309 307 308 303 302 300 299 293 290 291 298 299 309 309 306 303 301 301 300 301 293
nan nan nan nan nan nan nan nan nan nan nan nan nan nan nan nan nan nan nan nan 293 295 291 301 306 306 305 303 301 299 299 299 296 297 297 295 295 289 289 287 288 283 296 288 291 293 294 299 298
nan nan nan nan nan nan nan nan nan nan nan nan nan nan nan nan nan nan nan nan nan 294 299 295 294 298 301 294 297 301 301 297 294 294 293 285 278 nan 282 279 278 281 282 286 288 290 nan nan nan
nan nan nan nan nan nan nan nan nan nan nan nan nan nan nan nan nan nan nan nan nan nan nan 291 294 294 295 298 295 296 292 290 290 288 285 278 278 278 277 278 277 279 278 279 284 287 286 290 nan
nan nan nan nan nan nan nan nan nan nan nan nan nan nan nan nan nan nan nan nan nan nan nan nan 283 289 294 297 298 295 290 287 292 283 282 287 282 277 277 281 282 281 282 281 282 285 286 286 nan
nan nan nan nan nan nan nan nan nan nan nan nan nan nan nan nan nan nan nan nan nan nan nan nan nan 280 285 290 288 287 298 298 285 290 280 288 281 283 280 273 274 273 275 279 278 279 281 279 nan
nan nan nan nan nan nan nan nan nan nan nan nan nan nan nan nan nan nan nan nan nan nan nan nan nan nan 271 284 281 286 292 296 297 276 279 276 277 277 276 271 267 270 270 272 276 277 273 nan nan
nan nan nan nan nan nan nan nan nan nan nan nan nan nan nan nan nan nan nan nan nan nan nan nan nan nan nan 275 286 291 296 291 289 290 276 276 283 307 302 267 269 270 267 269 274 275 279 283 275
nan nan nan nan nan nan nan nan nan nan nan nan nan nan nan nan nan nan nan nan nan nan nan nan nan nan nan nan nan nan 291 287 285 288 290 293 284 288 303 279 270 267 266 267 267 273 275 272 257
nan nan nan nan nan nan nan nan nan nan nan nan nan nan nan nan nan nan nan nan nan nan nan nan nan nan nan nan nan nan 281 279 281 287 298 296 289 298 286 280 275 264 262 267 266 nan 271 264 nan
nan nan nan nan nan nan nan nan nan nan nan nan nan nan nan nan nan nan nan nan nan nan nan nan nan nan nan nan nan 279 278 280 280 286 296 294 274 261 287 256 252 263 265 264 265 264 nan nan nan
nan nan nan nan nan nan nan nan nan nan nan nan nan nan nan nan nan nan nan nan nan nan nan nan nan nan nan nan nan 257 263 260 265 271 274 271 275 269 276 nan 241 247 259 263 266 261 259 nan nan
nan nan nan nan nan nan nan nan nan nan nan nan nan nan nan nan nan nan nan nan nan nan nan nan nan nan nan nan nan 234 247 250 248 253 266 275 278 283 286 301 247 239 251 265 264 266 267 263 262
nan nan nan nan nan nan nan nan nan nan nan nan nan nan nan nan nan nan nan nan nan nan nan nan nan nan nan nan 225 228 225 231 228 247 262 274 265 273 278 275 271 262 258 268 273 273 271 268 nan
nan nan nan nan nan nan nan nan nan nan nan nan nan nan nan nan nan nan nan nan nan nan nan nan nan nan nan nan nan 221 219 218 220 243 250 257 257 250 252 250 260 259 246 261 266 274 280 272 nan
nan nan nan nan nan nan nan nan nan nan nan nan nan nan nan nan nan nan nan nan nan nan nan nan nan nan nan nan nan nan 222 219 221 231 250 249 248 251 256 271 208 240 238 252 262 270 267 267 nan
nan nan nan nan nan nan nan nan nan nan nan nan nan nan nan nan nan nan nan nan nan nan nan nan nan nan nan nan nan nan 221 227 231 235 247 251 254 255 nan nan nan 224 244 248 256 259 262 nan nan
nan nan nan nan nan nan nan nan nan nan nan nan nan nan nan nan nan nan nan nan nan nan nan nan nan nan nan nan nan nan 217 228 242 248 255 253 255 251 nan nan nan 228 241 235 244 251 nan nan nan
nan nan nan nan nan nan nan nan nan nan nan nan nan nan nan nan nan nan nan nan nan nan nan nan nan nan nan nan nan nan 223 229 242 244 250 261 264 265 nan nan nan nan 209 228 239 nan nan nan nan
nan nan nan nan nan nan nan nan nan nan nan nan nan nan nan nan nan nan nan nan nan nan nan nan nan nan nan nan nan nan 219 221 235 244 242 242 257 nan nan nan nan nan nan nan 239 nan nan nan nan
nan nan nan nan nan nan nan nan nan nan nan nan nan nan nan nan nan nan nan nan nan nan nan nan nan nan nan nan nan nan 215 216 232 235 239 247 nan nan nan nan nan nan nan 229 nan nan nan nan nan